Track STARLINK-1099 now! 10-day predictions STARLINK-1099 is classified as:
1 44918U 20001E 22140.29382004 .00011939 00000-0 81906-3 0 9996 2 44918 53.0532 103.8522 0002253 58.9963 301.1247 15.06398700131179